Terminal Aerodrome Forecast
Issued by NWS

Home | Current Version | Previous Version | Text Only | Print | Product List | Glossary On
Versions: 1 2 3 4 5 6 7 8 9 10 11 12 13 14 15 16 17 18 19 20 21 22 23 24 25 26
000
FTUS41 KOKX 012300 RRA
TAFHPN
TAF
KHPN 012342Z 0200/0224 03004KT P6SM SCT015 BKN025
      TEMPO 0201/0204 BKN015
     FM020400 01008KT 6SM BR SCT008 BKN012
      TEMPO 0206/0210 3SM -SHRADZ BR BKN008
     FM021800 02012KT P6SM SCT015 OVC025
     FM022300 04006KT P6SM SCT025 SCT035
      AMD NOT SKED=

USA.gov is the U.S. government's official web portal to all federal, state and local government web resources and services.